Regional Weather Roundup
Issued by NWS

Home | Current Version | Previous Version | Text Only | Print | Product List | Glossary On
Versions: 1 2 3 4 5 6 7 8 9 10 11 12 13 14 15 16 17 18 19 20 21 22 23 24 25 26 27 28 29 30 31 32 33 34 35 36 37 38 39 40 41 42 43 44 45 46 47 48 49 50
000
ASUS43 KDMX 131801
RWRIA

WEATHER ROUNDUP FOR IOWA
NATIONAL WEATHER SERVICE DES MOINES IA
1200 PM CST WED DEC 13 2017

NOTE: "FAIR" INDICATES FEW OR NO CLOUDS BELOW 12,000 FEET WITH NO
SIGNIFICANT WEATHER AND/OR OBSTRUCTIONS TO VISIBILITY.

* - THESE STATIONS ARE NOT NWS STATIONS...THUS NOT UNDER NWS
QUALITY CONTROL.  THEY ALSO DO NOT REPORT WEATHER SUCH
AS PRECIPITATION OR FOG.

IAZ001>003-012>014-020>022-031>034-043>046-131900-
   NORTHWEST IOWA

CITY           SKY/WX    TMP DP  RH WIND       PRES   REMARKS
CARROLL *      CLOUDY    43  30  61 N35G49    29.67R
CHEROKEE *     CLOUDY    39  33  78 N20G29    29.72R WCI  30
DENISON *      PTSUNNY   45  32  61 NW25G36   29.73R
LE MARS *      CLOUDY    41  32  70 NW20G35   29.76R
ORANGE CITY *  CLOUDY    41  34  75 NW21G30   29.72S
SHELDON *      CLOUDY    37  32  81 NW30G38   29.70S WCI  25
SIOUX CITY     CLOUDY    45  31  58 NW33G44   29.75R
6HR MIN TEMP:  43; 6HR MAX TEMP:  51; 6HR PCP: TRACE;

SPENCER        CLOUDY    37  30  75 NW32G44   29.68R WCI  24
6HR MIN TEMP:  36; 6HR MAX TEMP:  44; 6HR PCP:  0.01;

STORM LAKE *   CLOUDY    39  32  75 N29G40    29.68S WCI  28
$$

IAZ055>058-069>071-079>083-090>094-131900-
   SOUTHWEST IOWA

CITY           SKY/WX    TMP DP  RH WIND       PRES   REMARKS
ATLANTIC *     SUNNY     48  32  53 NW28G38   29.71R
AUDUBON *      SUNNY     45  32  61 NW23G41   29.70R
CLARINDA *     SUNNY     54  30  40 NW29G39     N/A
COUNCIL BLFS * SUNNY     50  30  46 NW26G38   29.73S
CRESTON *      SUNNY     48  32  53 NW37G46   29.67R
HARLAN  *      SUNNY     46  32  57 NW30G41   29.75R
LAMONI         SUNNY     50  32  50 NW31G48   29.64R
6HR MIN TEMP:  34; 6HR MAX TEMP:  52;

RED OAK *      SUNNY     52  30  43 NW20G37   29.73R
SHENANDOAH *   SUNNY     54  30  40 NW24G32   29.75S
$$

IAZ047>049-059>061-072>074-084-131900-
   CENTRAL IOWA

CITY           SKY/WX    TMP DP  RH WIND       PRES   REMARKS
AMES           CLOUDY    39  36  89 NW39G51   29.61R WCI  26
6HR MIN TEMP:  39; 6HR MAX TEMP:  46; 6HR PCP:  0.03;

ANKENY *       CLOUDY    41  34  75 NW20G32   29.62R
BOONE *        CLOUDY    37  32  81 NW37G46   29.60R WCI  24
CHARITON *     CLOUDY    45  36  70 NW25G43   29.60S
DES MOINES     CLOUDY    43  34  70 NW25G47   29.61R
6HR MIN TEMP:  39; 6HR MAX TEMP:  49; 6HR PCP:  0.02;

GRINNELL*      CLOUDY    37  33  84 NW32G47   29.55R WCI  24
KNOXVILLE *    CLOUDY    41  34  75 NW31G43   29.58R
MARSHALLTOWN   CLOUDY    36  32  85 NW33G48   29.54R WCI  22
6HR MIN TEMP:  36; 6HR MAX TEMP:  44; 6HR PCP:  0.01;

NEWTON *       CLOUDY    39  34  81 NW28G41   29.57R WCI  28
PELLA *        CLOUDY    40  35  83 NW25G40   29.58R WCI  29
PERRY *        CLOUDY    42  34  73 NW28      29.65R
$$

IAZ004>006-015-016-023>025-035-036-131900-
   NORTH CENTRAL IOWA

CITY           SKY/WX    TMP DP  RH WIND       PRES   REMARKS
ALGONA *       CLOUDY    34  28  80 NW38G47   29.62R WCI  19
CLARION *      CLOUDY    34  32  93 NW41G52   29.59R WCI  18
ESTHERVILLE    CLOUDY    32  27  81 NW39G51   29.66R WCI  16
6HR MIN TEMP:  32; 6HR MAX TEMP:  40; 6HR PCP: TRACE;

FORT DODGE *   CLOUDY    35  29  78 NW15G35   29.64R WCI  25
MASON CITY     CLOUDY    32  27  81 NW36G46   29.55R WCI  16
6HR MIN TEMP:  32; 6HR MAX TEMP:  40; 6HR PCP: TRACE;

FOREST CITY *  CLOUDY    32  30  93 NW30G40   29.56R WCI  18
WEBSTER CITY * LGT RAIN  36  30  80 NW40G56   29.60R WCI  21
IOWA FALLS *   CLOUDY    36  32  84 NW33G46   29.56R WCI  22
$$

IAZ007>011-017>019-026>030-037>042-050>054-066-131900-
   NORTHEAST IOWA

CITY           SKY/WX    TMP DP  RH WIND       PRES   REMARKS
CEDAR RAPIDS   CLOUDY    38  33  82 NW31G46   29.43R WCI  25
6HR MIN TEMP:  31; 6HR MAX TEMP:  45; 6HR PCP:  0.01;

CHARLES CITY * CLOUDY    36  30  80 NW32G46   29.48R WCI  22
CLINTON *      CLOUDY    43  29  57 W31G37    29.32F
DECORAH *      CLOUDY    32  27  80 NW18G29   29.40R WCI  20
DUBUQUE        CLOUDY    37  29  72 NW22G30   29.32R WCI  26
6HR MIN TEMP:  26; 6HR MAX TEMP:  38;

MONTICELLO *   CLOUDY    41  28  60 NW25G39   29.37R
OELWEIN *      CLOUDY    34  30  86 NW26G44   29.44R WCI  21
WATERLOO       CLOUDY    37  29  72 NW28G40   29.47R WCI  25
6HR MIN TEMP:  32; 6HR MAX TEMP:  42;

$$

IAZ064-065-067-068-078-131900-
   EAST CENTRAL IOWA

CITY           SKY/WX    TMP DP  RH WIND       PRES   REMARKS
DAVENPORT      PTSUNNY   44  29  55 W30G45    29.38S
6HR MIN TEMP:  31; 6HR MAX TEMP:  45;

IOWA CITY      CLOUDY    40  34  79 W24G43    29.46R WCI  29
6HR MIN TEMP:  32; 6HR MAX TEMP:  47; 6HR PCP:  0.01;

MT. PLEASANT * LGT RAIN  41  37  84 W30G37    29.50R
MUSCATINE *    LGT RAIN  41  37  87 W29G47    29.44R
QUAD CITIES    CLOUDY    47  31  53 W24G41    29.36S
6HR MIN TEMP:  32; 6HR MAX TEMP:  47;

$$

IAZ062-063-075>077-085>089-095>099-131900-
   SOUTHEAST IOWA

CITY           SKY/WX    TMP DP  RH WIND       PRES   REMARKS
BURLINGTON     LGT RAIN  44  38  79 W24G43    29.45S
6HR MIN TEMP:  31; 6HR MAX TEMP:  49; 6HR PCP: TRACE;

FAIRFIELD *    CLOUDY    39  34  81 NW30G45   29.51R WCI  27
FORT MADISON * DRIZZLE   45  39  81 W25G41    29.49R
KEOKUK *       CLOUDY    50  32  50 NW26G40   29.48S
OSKALOOSA *    CLOUDY    38  35  87 NW28G36   29.56R WCI  27
OTTUMWA        LGT RAIN  40  37  89 NW21G32   29.55R WCI  30
6HR MIN TEMP:  36; 6HR MAX TEMP:  49; 6HR PCP:  0.02;

WASHINGTON *   LGT RAIN  39  37  93 NW28G46   29.50R WCI  28
$$

ABBREVIATIONS USED IN REMARKS
   TC - TEMPERATURES IN CELSIUS
  WCI - WIND CHILL INDEX
   HX - HEAT INDEX
  VSB - VISIBILITY
$$





USA.gov is the U.S. government's official web portal to all federal, state and local government web resources and services.